Location: El Manguito
(10.2358°N, 67.3634°W)
Time: 01:21:21
(UTC+00:00)

Aurora 2 Rocket - Pass Details

Date: 17 December 2025
Orbit: 385 x 1540 km, 25.0° (Epoch: 20 January)

Event Time Altitude Azimuth Distance (km) Brightness Sun altitude
Exits shadow 10:13:29 - 298° (WNW) 3,240 5.5 -6.8°
Reaches altitude 10° 10:14:28 10° 303° (WNW) 2,962 5.4 -6.6°
Maximum altitude 10:19:38 21° 348° (NNW) 1,967 4.8 -5.4°
Drops below altitude 10° 10:23:49 10° 36° (NE) 2,333 5.7 -4.5°
Sets 10:26:34 0° 54° (NE) 3,055 6.6 -3.8°
